Simultaneous Nadir Overpasses (SNOs) Predictions

Prediction of SNOs between FY3D and NOAA-19 Satellite Orbit:

Table of predicted SNOs for the next 14.0 days since TLE Epoch: 11/6/2021
Index Date (FY3D) Time (FY3D) Lat,Lon (FY3D) SZA (FY3D ) Date (NOAA-19) Time (NOAA-19) Lat,Lon (NOAA-19) SZA (NOAA-19 ) Distance(km) Time Diff (sec)
1 11/18/2021 00:02:11 78.05, 158.43 97.72 11/18/2021 00:00:57 78.07, 158.44 97.76 2.46 74
2 11/18/2021 00:52:56 -78.07, -34.36 82.25 11/18/2021 00:52:01 -78.07, -34.32 82.24 1.04 55
3 11/18/2021 01:43:40 78.05, 133.03 97.74 11/18/2021 01:42:57 78.08, 132.98 97.78 2.95 43
4 11/18/2021 02:34:25 -78.07, -59.75 82.23 11/18/2021 02:34:01 -78.08, -59.77 82.22 0.87 24
5 11/18/2021 03:25:09 78.10, 107.43 97.82 11/18/2021 03:24:56 78.08, 107.52 97.80 2.68 13
6 11/18/2021 04:15:53 -78.08, -85.15 82.21 11/18/2021 04:16:00 -78.09, -85.23 82.20 2.15 7
7 11/18/2021 05:06:38 78.10, 82.03 97.84 11/18/2021 05:06:56 78.09, 82.06 97.82 1.51 18
8 11/18/2021 05:57:23 -78.12,-110.76 82.13 11/18/2021 05:58:00 -78.09,-110.69 82.17 3.48 37
9 11/18/2021 06:48:07 78.11, 56.64 97.86 11/18/2021 06:48:56 78.10, 56.60 97.84 1.36 49
10 11/18/2021 07:38:52 -78.12,-136.15 82.11 11/18/2021 07:40:00 -78.10,-136.14 82.15 2.81 68
11 11/18/2021 08:29:42 78.35, 29.92 98.19 11/18/2021 08:30:50 78.32, 32.51 98.00 58.20 68



Historial Predications of SNOs between FY3D and NOAA-19
